Date String (YYYY-MM-DD hh:mm:ss) UTC,Instrument flags,Ambient pressure (hPa),Sample flow (lpm),Bypass flow (lpm),Sample temperature (°C),Ambient temperature (°C),ASC tube jacket temperature (°C),LED temperature (°C),Box temperature (°C),Sample RH (%),Span deviation,Mass concentration (μg/m³),Mass concentration (μg/m³),Mass concentration (μg/m³)
DateTimeUTC,F1_M11,P_M11,Q1_M11,Q2_M11,T1_M11,T2_M11,T3_M11,T4_M11,T5_M11,U1_M11,ZSPAN_M11,X2_M11,X0_M11,X1_M11
2023-01-03 18:00:00,,0817.8,5.01,0.00,22.9,21.7,00.0,31.7,24.7,12.1,0000.0,0003.75,0007.98,0003.39
2023-01-03 18:01:00,,0817.9,5.00,0.00,22.9,21.6,00.0,31.7,24.7,12.0,0000.0,0003.75,0007.82,0003.41
2023-01-03 18:02:00,,0817.8,5.00,0.00,22.9,21.6,00.0,31.7,24.6,12.0,0000.0,0003.76,0007.48,0003.42
2023-01-03 18:03:00,,0817.8,5.00,0.00,22.9,21.5,00.0,31.7,24.6,12.1,0000.0,0003.76,0007.46,0003.43
2023-01-03 18:04:00,,0817.7,5.00,0.00,22.9,21.5,00.0,31.7,24.6,12.1,0000.0,0003.76,0007.30,0003.44
2023-01-03 18:05:00,,0817.7,5.01,0.00,22.8,21.5,00.0,31.7,24.6,12.1,0000.0,0003.75,0007.77,0003.45
2023-01-03 18:06:00,,0817.8,5.00,0.00,22.8,21.4,00.0,31.7,24.6,12.1,0000.0,0003.74,0008.18,0003.46
2023-01-03 18:07:00,,0817.8,5.00,0.00,22.8,21.4,00.0,31.7,24.6,12.1,0000.0,0003.72,0007.85,0003.47
2023-01-03 18:08:00,,0817.7,5.00,0.00,22.8,21.4,00.0,31.7,24.6,12.1,0000.0,0003.69,0007.58,0003.47
2023-01-03 18:09:00,,0817.6,5.01,0.00,22.8,21.3,00.0,31.7,24.5,12.1,0000.0,0003.69,0007.57,0003.47
2023-01-03 18:10:00,,0817.6,5.00,0.00,22.7,21.1,00.0,31.6,24.5,12.1,0000.0,0003.70,0007.74,0003.48
2023-01-03 18:11:00,,0817.6,5.03,0.00,22.7,21.0,00.0,31.6,24.4,12.1,0000.0,0003.69,0007.73,0003.48
2023-01-03 18:12:00,,0817.7,5.01,0.00,22.6,20.8,00.0,31.6,24.3,12.1,0000.0,0003.68,0007.72,0003.46
2023-01-03 18:13:00,,0817.8,5.02,0.00,22.6,20.7,00.0,31.6,24.2,12.2,0000.0,0003.65,0007.66,0003.45
2023-01-03 18:14:00,,0817.8,5.01,0.00,22.5,20.5,00.0,31.5,24.1,12.2,0000.0,0003.66,0007.67,0003.45
2023-01-03 18:15:00,,0817.8,5.00,0.00,22.5,20.4,00.0,31.5,24.0,12.2,0000.0,0003.65,0007.55,0003.43
2023-01-03 18:16:00,,0817.8,5.00,0.00,22.4,20.5,00.0,31.5,24.1,12.2,0000.0,0003.67,0007.05,0003.44
2023-01-03 18:17:00,,0817.8,5.00,0.00,22.4,20.6,00.0,31.4,24.1,12.3,0000.0,0003.67,0006.00,0003.43
2023-01-03 18:18:00,,0817.8,4.99,0.00,22.4,20.7,00.0,31.4,24.1,12.3,0000.0,0003.65,0005.87,0003.41
2023-01-03 18:19:00,,0817.8,5.00,0.00,22.4,20.6,00.0,31.4,24.0,12.3,0000.0,0003.62,0005.64,0003.40
2023-01-03 18:20:00,,0817.8,5.01,0.00,22.4,21.2,00.0,31.3,24.2,12.3,0000.0,0003.56,0005.35,0003.38
2023-01-03 18:21:00,,0817.7,5.00,0.00,22.5,22.2,00.0,31.3,24.4,12.2,0000.0,0003.50,0004.88,0003.33
2023-01-03 18:22:00,,0817.7,4.97,0.00,22.6,23.0,00.0,31.3,24.7,12.2,0000.0,0003.47,0004.76,0003.29
2023-01-03 18:23:00,,0817.6,5.01,0.00,22.7,22.8,00.0,31.4,24.7,12.2,0000.0,0003.43,0004.80,0003.25
2023-01-03 18:24:00,,0817.7,5.03,0.00,22.7,22.4,00.0,31.4,24.6,12.2,0000.0,0003.37,0004.96,0003.21
2023-01-03 18:25:00,,0817.7,5.01,0.00,22.7,22.0,00.0,31.5,24.4,12.2,0000.0,0003.31,0004.78,0003.16
2023-01-03 18:26:00,,0817.8,4.95,0.00,22.6,21.7,00.0,31.5,24.4,12.2,0000.0,0003.28,0004.73,0003.13
2023-01-03 18:27:00,,0817.8,5.03,0.00,22.6,21.5,00.0,31.5,24.4,12.2,0000.0,0003.23,0004.64,0003.09
2023-01-03 18:28:00,,0817.8,5.04,0.00,22.6,21.5,00.0,31.5,24.4,12.2,0000.0,0003.18,0004.53,0003.02
2023-01-03 18:29:00,,0817.7,5.02,0.00,22.6,21.4,00.0,31.5,24.4,12.2,0000.0,0003.15,0004.52,0002.95
2023-01-03 18:30:00,,0817.6,4.96,0.00,22.6,21.3,00.0,31.5,24.3,12.2,0000.0,0003.14,0004.68,0002.89
2023-01-03 18:31:00,,0817.7,5.02,0.00,22.6,21.2,00.0,31.5,24.3,12.2,0000.0,0003.12,0006.19,0002.82
2023-01-03 18:32:00,,0817.7,5.00,0.00,22.6,21.2,00.0,31.4,24.3,12.3,0000.0,0003.11,0007.24,0002.80
2023-01-03 18:33:00,,0817.7,4.97,0.00,22.6,21.2,00.0,31.4,24.3,12.4,0000.0,0003.07,0007.16,0002.78
2023-01-03 18:34:00,,0817.6,5.03,0.00,22.6,21.2,00.0,31.4,24.3,12.4,0000.0,0003.08,0007.09,0002.78
2023-01-03 18:35:00,,0817.6,4.99,0.00,22.6,21.1,00.0,31.4,24.3,12.4,0000.0,0003.12,0006.78,0002.80
2023-01-03 18:36:00,,0817.6,5.01,0.00,22.5,21.0,00.0,31.4,24.2,12.3,0000.0,0003.14,0006.85,0002.82
2023-01-03 18:37:00,,0817.6,4.99,0.00,22.5,21.0,00.0,31.4,24.2,12.3,0000.0,0003.14,0006.90,0002.81
2023-01-03 18:38:00,,0817.6,4.98,0.00,22.5,20.9,00.0,31.4,24.1,12.4,0000.0,0003.12,0006.85,0002.79
2023-01-03 18:39:00,,0817.5,4.99,0.00,22.4,20.9,00.0,31.4,24.1,12.4,0000.0,0003.10,0006.88,0002.77
2023-01-03 18:40:00,,0817.5,5.05,0.00,22.4,20.8,00.0,31.4,24.1,12.4,0000.0,0003.07,0006.81,0002.75
2023-01-03 18:41:00,,0817.5,5.02,0.00,22.4,20.9,00.0,31.4,24.1,12.4,0000.0,0003.04,0006.65,0002.73
2023-01-03 18:42:00,,0817.5,5.00,0.00,22.4,20.8,00.0,31.3,24.1,12.4,0000.0,0003.02,0005.30,0002.72
2023-01-03 18:43:00,,0817.5,4.98,0.00,22.4,20.9,00.0,31.3,24.1,12.4,0000.0,0003.05,0004.33,0002.72
2023-01-03 18:44:00,,0817.4,5.06,0.00,22.4,21.4,00.0,31.3,24.2,12.4,0000.0,0003.04,0004.42,0002.69
2023-01-03 18:45:00,,0817.4,5.01,0.00,22.5,22.5,00.0,31.2,24.5,12.3,0000.0,0003.00,0004.43,0002.66
2023-01-03 18:46:00,,0817.5,4.97,0.00,22.6,23.2,00.0,31.3,24.7,12.3,0000.0,0002.93,0004.57,0002.62
2023-01-03 18:47:00,,0817.5,4.97,0.00,22.7,22.9,00.0,31.4,24.7,12.2,0000.0,0002.90,0004.84,0002.58
2023-01-03 18:48:00,,0817.4,5.02,0.00,22.7,22.4,00.0,31.4,24.6,12.3,0000.0,0002.85,0004.73,0002.56
2023-01-03 18:49:00,,0817.5,5.05,0.00,22.7,22.0,00.0,31.4,24.5,12.3,0000.0,0002.83,0004.62,0002.54
2023-01-03 18:50:00,,0817.5,4.98,0.00,22.7,21.6,00.0,31.4,24.4,12.2,0000.0,0002.87,0004.87,0002.56
2023-01-03 18:51:00,,0817.5,4.97,0.00,22.6,21.2,00.0,31.4,24.3,12.2,0000.0,0002.87,0004.89,0002.57
2023-01-03 18:52:00,,0817.5,5.05,0.00,22.6,20.9,00.0,31.4,24.2,12.3,0000.0,0002.87,0005.40,0002.59
2023-01-03 18:53:00,,0817.5,4.97,0.00,22.5,20.7,00.0,31.4,24.1,12.3,0000.0,0002.91,0005.44,0002.63
2023-01-03 18:54:00,,0817.5,5.02,0.00,22.4,20.7,00.0,31.4,24.0,12.3,0000.0,0002.90,0005.39,0002.66
2023-01-03 18:55:00,,0817.5,5.00,0.00,22.4,20.8,00.0,31.4,24.1,12.4,0000.0,0002.95,0005.72,0002.70
2023-01-03 18:56:00,,0817.5,5.00,0.00,22.4,20.9,00.0,31.3,24.1,12.4,0000.0,0003.02,0006.13,0002.75
2023-01-03 18:57:00,,0817.4,5.00,0.00,22.4,20.9,00.0,31.3,24.1,12.4,0000.0,0003.09,0006.01,0002.81
2023-01-03 18:58:00,,0817.5,4.99,0.00,22.4,20.9,00.0,31.3,24.1,12.5,0000.0,0003.15,0006.47,0002.88
2023-01-03 18:59:00,,0817.5,5.01,0.00,22.4,20.9,00.0,31.3,24.1,12.5,0000.0,0003.19,0006.73,0002.93
